Date,Seconds since 1970,Water Temperature �,Optical Backscatter (1/(m sr)),Chlorophyll Concentration (ug/L),Salinity (PSU),Density (kg/m^3),Current Velocity (m/s),Wind Speed (m/s),Mixed Layer Depth (m)
1/11/15 3:00,1420945200,0.808746971,0.000747229,8.338758808,33.14101183,1026.584974,0.146954576,1.5,16.54180725
1/11/15 4:00,1420948800,0.933675628,0.001086635,13.14826401,33.11777949,1026.560908,0.146954576,0.7,15.62264622
1/11/15 5:00,1420952400,1.013982013,0.000849238,9.603123427,33.09533272,1026.538347,0.123896867,0.4,14.70348519
1/11/15 6:00,1420956000,0.979219716,0.000933589,10.88660933,33.09779676,1026.542235,0.130717914,1.299159664,13.78432416
1/11/15 7:00,1420959600,1.018187976,0.000735778,7.889506791,33.05966202,1026.508528,0.147368061,0,12.09989333
1/11/15 8:00,1420963200,0.95540773,0.000776749,8.649783218,33.09043475,1026.538591,0.160634464,0,7.844907253
1/11/15 9:00,1420966800,0.849965602,0.000732567,8.297938308,33.13669919,1026.580866,0.190939503,0,8.495731771
1/11/15 10:00,1420970400,0.864722626,0.000723981,6.812362548,33.10567707,1026.554427,0.211285572,0.8,7.142433157
1/11/15 11:00,1420974000,0.666865714,0.000510765,2.792135128,33.21026347,1026.64917,0.211285572,0.099166667,7.563320958
1/11/15 12:00,1420977600,0.868851089,0.000593794,3.172252437,33.11950678,1026.565921,0.191770041,0.198347107,7.98420876
1/11/15 13:00,1420981200,0.605461276,0.000398512,1.37347758,32.88898589,1026.395125,0.174834713,0.5,11.77291502
1/11/15 14:00,1420984800,-0.154040901,0.000260652,0.418957197,32.73573825,1026.310703,0.125928031,1.401666667,15.69290363
1/11/15 15:00,1420988400,-0.060036703,0.000243232,0.348451035,32.74044539,1026.308844,0.102026379,1.7,15.47141461
1/11/15 16:00,1420992000,-0.026284604,0.000245387,0.377143359,32.71900186,1026.290907,0.083458208,0.699166667,9.325916663
1/11/15 17:00,1420995600,0.080390862,0.000236658,0.356262356,32.80413758,1026.353362,0.08207192,1.3,12.76980532
1/11/15 18:00,1420999200,0.10935798,0.000244676,0.487442282,32.72537551,1026.290368,0.081458952,1.101666667,21.48313546
1/11/15 19:00,1421002800,0.093071962,0.00026401,0.542441252,32.82170772,1026.36828,0.106723425,0.200833333,16.26667079
1/11/15 20:00,1421006400,0.080786915,0.000270918,0.751792777,32.78447551,1026.339012,0.108628956,0.100833333,14.50489248
1/11/15 21:00,1421010000,0.131236102,0.000275613,1.072144106,32.810044,1026.356499,0.150227965,1.698333333,15.66309684
1/11/15 22:00,1421013600,0.083035147,0.000309666,2.203548294,32.80431151,1026.355403,0.150235469,2.101666667,18.9158564
1/11/15 23:00,1421017200,0.085584198,0.000333353,2.491913195,32.79353662,1026.345539,0.153363009,2.701666667,17.80098863
1/12/15 0:00,1421020800,0.127883075,0.000341623,2.580011994,32.76878973,1026.323044,0.153363009,2.4,16.57013713
1/12/15 1:00,1421024400,0.097621343,0.000402161,3.323919914,32.80491627,1026.354528,0.141386446,1.498333333,15.33928563
1/12/15 2:00,1421028000,0.407120635,0.000276876,1.799545385,32.71275959,1026.264814,0.141386446,1.9,14.10843413
1/12/15 3:00,1421031600,0.384863742,0.000302698,2.190779215,32.71138228,1026.264324,0.12431789,2.1,12.87758263
1/12/15 4:00,1421035200,0.272274621,0.000278073,1.815157704,32.7783815,1026.322659,0.118476648,2.5,11.64673113
1/12/15 5:00,1421038800,0.603403485,0.000411443,3.542874219,32.96598848,1026.458095,0.115892377,1.4,16
1/12/15 6:00,1421042400,0.810436198,0.000336686,2.579574861,33.00654865,1026.477884,0.13147693,1.7,16
1/12/15 7:00,1421046000,0.781865715,0.000370997,2.943751215,33.01311824,1026.48524,0.13147693,2,16
1/12/15 8:00,1421049600,0.646400961,0.000476428,4.415781899,33.09668348,1026.559901,0.146635207,1.6,14.3809016
1/12/15 9:00,1421053200,0.674078063,0.000433174,3.909017019,33.03651186,1026.509918,0.151965852,1.8,12.29950328
1/12/15 10:00,1421056800,0.478167036,0.000460552,4.287521677,33.12708624,1026.593359,0.183394089,1.9,11.24928448
1/12/15 11:00,1421060400,0.604865611,0.000561212,5.753952062,33.0009406,1026.485877,0.183711547,1.201666667,12.81919582
1/12/15 12:00,1421064000,0.550795882,0.000412591,2.764124267,32.94977665,1026.448029,0.18440206,1.098347107,12.12603833
1/12/15 13:00,1421067600,0.406829918,0.000218917,0.857235711,32.53948865,1026.125684,0.163577225,0.3,11.43288085
1/12/15 14:00,1421071200,0.257161289,0.000199764,0.361562889,32.57470904,1026.161661,0.15479804,2.2,14.27134093
1/12/15 15:00,1421074800,0.196467446,0.000221599,0.494885638,32.62874183,1026.205213,0.133955735,2.7,13.48310433
1/12/15 16:00,1421078400,0.156675766,0.000280616,0.820345014,32.66395224,1026.238428,0.133955735,2.9,12.36602803
1/12/15 17:00,1421082000,0.277681067,0.000260365,0.558946974,32.67382826,1026.239297,0.11076505,3.198333333,11.74314435
1/12/15 18:00,1421085600,0.454178093,0.000269262,0.671692027,32.7193935,1026.267713,0.111241862,3.4,9.208717373
1/12/15 19:00,1421089200,0.404420058,0.000280206,0.889994596,32.73282983,1026.280505,0.11546581,2.29338843,6.674290392
1/12/15 20:00,1421092800,0.582108986,0.000236961,1.168800052,32.68732394,1026.235004,0.120188442,0.099166667,15.91289795
1/12/15 21:00,1421096400,0.642896442,0.000248648,1.560789749,32.69347913,1026.236528,0.125734413,2.798333333,10.0657517
1/12/15 22:00,1421100000,0.464494719,0.000370246,2.941106355,32.75401702,1026.293865,0.139668212,1.9,7.329879148
1/12/15 23:00,1421103600,0.335497746,0.000379144,3.318634184,32.82574714,1026.359562,0.149458186,2.901666667,8.007650396
1/13/15 0:00,1421107200,0.498375314,0.000305967,2.344822762,32.71855232,1026.263016,0.151775546,2.801666667,8.685421645
1/13/15 1:00,1421110800,0.331922622,0.000388583,3.231789676,32.77908108,1026.322966,0.152661368,2.601666667,9.363192893
1/13/15 2:00,1421114400,0.526027093,0.000304456,2.339859806,32.67023376,1026.223392,0.131205229,2,10.04096414
1/13/15 3:00,1421118000,0.497036892,0.000450839,4.555972487,32.71597356,1026.262462,0.131205229,1.6,10.71873539
1/13/15 4:00,1421121600,0.645871187,0.000483475,4.962017951,32.76513776,1026.293678,0.107563325,0.7,11.39650664
1/13/15 5:00,1421125200,0.630204064,0.00047952,4.734335431,32.77932708,1026.307342,0.100291444,1.1,12.11338292
1/13/15 6:00,1421128800,0.640931316,0.00047259,4.573074002,32.79153149,1026.315928,0.074133277,1.603333333,13.14797999
1/13/15 7:00,1421132400,0.717068177,0.000481939,4.787981396,32.84044819,1026.350638,0.080353393,0.301666667,14.18257706
1/13/15 8:00,1421136000,0.792450562,0.000543553,5.639501329,32.93410619,1026.42179,0.091224443,0.299159664,20.7972271
1/13/15 9:00,1421139600,0.998375086,0.000697356,8.014731307,33.1084937,1026.544286,0.106881798,0,14.62662304
1/13/15 10:00,1421143200,1.06843835,0.000980318,12.6188161,33.31992119,1026.715829,0.127939238,1.101666667,13.16103962
1/13/15 11:00,1421146800,1.178486106,0.001225094,15.00816803,33.29616367,1026.688601,0.166488618,0,12.66366932
1/13/15 12:00,1421150400,0.983974477,0.000889199,8.659900456,33.33611376,1026.731694,0.166488618,1.000840336,14.95882421
1/13/15 13:00,1421154000,0.96531873,0.00070448,4.598256267,33.29919257,1026.703462,0.166697771,1.898333333,14.82130439
1/13/15 14:00,1421157600,0.961545878,0.0007276,5.568077178,33.23250672,1026.650995,0.166697771,1.601666667,8.867600625
1/13/15 15:00,1421161200,0.971791952,0.000722763,4.218356107,33.22345774,1026.642233,0.165753557,1.401666667,12.03419891
1/13/15 16:00,1421164800,0.835259619,0.000608586,2.70646817,33.25105862,1026.671501,0.151991078,0.799166667,9.017107565
1/13/15 17:00,1421168400,0.327682971,0.000407662,1.096495901,33.16638301,1026.632124,0.141329005,0.400840336,9.297820256
1/13/15 18:00,1421172000,0.499830802,0.000354533,1.285374974,33.19983227,1026.649985,0.121008911,2.900840336,9.578532946
1/13/15 19:00,1421175600,0.99711129,0.000316174,0.742505989,32.99963284,1026.459143,0.116272411,3,9.859245637
1/13/15 20:00,1421179200,0.833294461,0.000392118,1.79883962,33.13778926,1026.581083,0.100601918,1.601666667,8.554428357
1/13/15 21:00,1421182800,0.744381107,0.000512998,4.221331879,33.14233322,1026.590817,0.100697013,1.9,9.530439745
1/13/15 22:00,1421186400,0.54687421,0.00048983,4.256098009,33.16431554,1026.619047,0.102113863,2.901666667,14.98546832
1/13/15 23:00,1421190000,0.838561247,0.000498828,4.48539361,33.07104252,1026.527312,0.102113863,3.298333333,15.81214721
1/14/15 0:00,1421193600,0.281059615,0.000437173,3.797966426,33.22732124,1026.684078,0.126223237,2.496666667,16.64684781
1/14/15 1:00,1421197200,0.65233711,0.00063321,6.05328757,33.1047099,1026.566086,0.126380953,2.198333333,10.33174634
1/14/15 2:00,1421200800,0.702673019,0.000580906,5.575555804,33.13653441,1026.589302,0.127360812,2.501666667,13.94503249
1/14/15 3:00,1421204400,0.730306239,0.000672087,6.992932055,33.17033356,1026.613606,0.122042787,2.8,11.55744808
1/14/15 4:00,1421208000,0.714787771,0.000750165,7.899511497,33.03159095,1026.504416,0.119640633,2.798333333,12.77406057
1/14/15 5:00,1421211600,0.807578437,0.000679356,6.914639152,33.03284323,1026.497841,0.115502383,4.4,10.85787754
1/14/15 6:00,1421215200,0.877451923,0.000601594,5.812068981,32.93346823,1026.415935,0.114861333,3.5,8.085989789
1/14/15 7:00,1421218800,0.740517561,0.000590456,5.751641251,33.0380626,1026.506864,0.115638322,3.501666667,8.574066646
1/14/15 8:00,1421222400,0.891996386,0.000761352,8.337843211,32.97754347,1026.450291,0.115638322,3.998333333,8.031322508
1/14/15 9:00,1421226000,0.796566252,0.000808947,8.844532397,33.02892067,1026.497559,0.132492829,5.011666667,7.488578371
1/14/15 10:00,1421229600,0.822069516,0.000609162,5.591868242,33.01300452,1026.483279,0.134848985,2.801666667,6.945834234
1/14/15 11:00,1421233200,0.741587571,0.000466711,4.458630325,32.99503949,1026.472159,0.156802622,4,6.403090096
1/14/15 12:00,1421236800,0.663858614,0.000439717,4.205939458,32.82895028,1026.345453,0.156802622,3.588333333,9.769179186
1/14/15 13:00,1421240400,0.725632355,0.000402218,1.921291724,32.6871266,1026.227575,0.17138337,1.198333333,10.91736637
1/14/15 14:00,1421244000,0.526523427,0.000383779,1.845059145,32.6029321,1026.169819,0.168343114,1.597478992,8.781965862
1/14/15 15:00,1421247600,0.352158955,0.000223217,0.553699887,32.50307526,1026.099414,0.162024757,3.292436975,7.706572311
1/14/15 16:00,1421251200,0.724379987,0.000182679,0.310337053,32.38370148,1025.982901,0.139800067,0.698333333,8
1/14/15 17:00,1421254800,0.543703229,0.000206939,0.344935691,32.48367826,1026.074542,0.135373509,0.2,11.77210964
1/14/15 18:00,1421258400,0.575693416,0.000226804,0.607629744,32.49259057,1026.077638,0.112042434,1.496694215,10.13487987
1/14/15 19:00,1421262000,0.364638045,0.000247435,0.788565016,32.53439919,1026.124721,0.112042434,0.2,9
1/14/15 20:00,1421265600,0.503131199,0.000236893,0.773980452,32.47091938,1026.064361,0.084850063,1.1,11.50187999
1/14/15 21:00,1421269200,0.582007299,0.000250927,1.23288264,32.4695787,1026.059344,0.085526441,0.500840336,9.774858703
1/14/15 22:00,1421272800,0.181850137,0.000338426,2.26651986,32.6892508,1026.257544,0.088014401,1.703333333,6.803151213
1/14/15 23:00,1421276400,0.309217945,0.000314177,2.42353584,32.62429263,1026.199051,0.087732593,2.498347107,6.896578615
1/15/15 0:00,1421280000,0.368730787,0.000371527,3.258349734,32.66595572,1026.229924,0.084096901,1.203305785,7.961582714
1/15/15 1:00,1421283600,0.486307791,0.000447503,3.952728106,32.63237343,1026.195725,0.088083041,1.097478992,9.026586814
1/15/15 2:00,1421287200,0.597218757,0.000357744,2.844299667,32.52003804,1026.100605,0.092453375,2.798333333,9.430149646
1/15/15 3:00,1421290800,0.540801876,0.000360245,2.788347439,32.52664921,1026.106339,0.114918111,1.703333333,10.94215614
1/15/15 4:00,1421294400,0.502776284,0.000344944,2.686278251,32.52276418,1026.106776,0.114918111,1.298333333,11
1/15/15 5:00,1421298000,0.573153802,0.000379458,3.15253935,32.5502356,1026.124721,0.122925986,0.298333333,10.54274488
1/15/15 6:00,1421301600,0.747658343,0.000653222,4.993085275,32.59272344,1026.149066,0.122806262,5.696666667,9.09252327
1/15/15 7:00,1421305200,0.978463712,0.000641488,7.157015628,32.80008768,1026.303723,0.12219336,4.103333333,9.57833129
1/15/15 8:00,1421308800,0.978885647,0.000667978,7.475379518,32.80856325,1026.309128,0.120309501,5.306666667,9.167178543
1/15/15 9:00,1421312400,0.99954541,0.000548452,5.745802537,33.0246766,1026.482638,0.116606957,4.295,9.453911803
1/15/15 10:00,1421316000,0.940076538,0.000520052,4.897674452,32.94118818,1026.417821,0.119151486,4.798333333,9.740645063
1/15/15 11:00,1421319600,1.010011848,0.000566621,4.525929092,32.96298457,1026.432971,0.125029482,5.601666667,9.609437561
1/15/15 12:00,1421323200,1.006917968,0.000896285,3.484650378,32.94706827,1026.419161,0.141430941,6.003333333,7.950342102
1/15/15 13:00,1421326800,1.046413188,0.000651953,3.939295278,32.93059477,1026.403549,0.145739135,5.298333333,11.83930469
1/15/15 14:00,1421330400,1.096866476,0.000688942,4.033143391,32.97060211,1026.431194,0.167482292,4.398333333,10.63593602
1/15/15 15:00,1421334000,1.14704685,0.000699132,3.927850227,32.990179,1026.445165,0.167588339,5.2,11.72519452
1/15/15 16:00,1421337600,1.182354473,0.000748571,5.830979468,33.06136162,1026.500498,0.149519188,3.495,11.55873277
1/15/15 17:00,1421341200,1.238250977,0.000801343,5.414398203,33.11725592,1026.542237,0.149519188,4.501666667,11.56560205
1/15/15 18:00,1421344800,1.196956189,0.000783923,4.902170216,33.20100626,1026.612071,0.132187213,3.195,10.4141978
1/15/15 19:00,1421348400,1.192990079,0.000725468,4.335288697,33.2583356,1026.658189,0.129341411,2.603333333,15.34242614
1/15/15 20:00,1421352000,1.176165641,0.000778423,5.327351321,33.26963777,1026.667444,0.096908649,4.201666667,18.19113932
1/15/15 21:00,1421355600,1.347548183,0.000707681,5.100794631,33.28468037,1026.667871,0.096908649,4.598333333,18.03373122
1/15/15 22:00,1421359200,1.280877446,0.000795151,6.928380418,33.29170227,1026.67919,0.061615089,4.801666667,18.89810114
1/15/15 23:00,1421362800,1.364440024,0.000878358,9.256081858,33.20608211,1026.603345,0.062919249,6.598333333,12.06378026
1/16/15 0:00,1421366400,1.208339411,0.000826679,9.485071245,33.09576006,1026.526534,0.066169139,7.403333333,8.240067816
1/16/15 1:00,1421370000,1.398283335,0.000774359,8.376690619,33.03042807,1026.460208,0.080116697,4.996666667,10.67116231
1/16/15 2:00,1421373600,1.359695709,0.000737693,7.888736416,33.01002019,1026.448249,0.082573937,6.7,10.12191099
1/16/15 3:00,1421377200,1.107639655,0.000665729,7.029997257,33.15839945,1026.581283,0.092001854,5.196666667,8.468420692
1/16/15 4:00,1421380800,1.207105148,0.00077497,8.754799259,33.12717864,1026.551936,0.091031298,5.2,6.499914804
1/16/15 5:00,1421384400,1.199457403,0.000735995,8.126239188,33.03085066,1026.474412,0.077079202,4.903333333,6.51286716
1/16/15 6:00,1421388000,1.178241032,0.000758022,8.462622621,33.08494228,1026.518901,0.077079202,4.196666667,6.728849184
1/16/15 7:00,1421391600,1.084225426,0.000746551,8.344216315,33.17847121,1026.600287,0.07290168,3.498333333,6
1/16/15 8:00,1421395200,1.068625383,0.000704023,7.885913079,33.04278858,1026.491114,0.070704649,3.998333333,6
1/16/15 9:00,1421398800,0.960237881,0.000693554,7.49420011,33.18873366,1026.617213,0.068602136,4.101666667,6
1/16/15 10:00,1421402400,0.993935017,0.000682772,7.142329695,33.12314475,1026.561291,0.084106529,3.598333333,6
1/16/15 11:00,1421406000,0.863806939,0.000632769,5.911042147,33.16896776,1026.605985,0.084106529,2.2,8.51755864
1/16/15 12:00,1421409600,0.897972977,0.000600828,4.935939083,33.07857035,1026.531088,0.114299189,1.5,7.192417323
1/16/15 13:00,1421413200,0.797251326,0.000634262,6.247180576,33.22110449,1026.652061,0.11775469,1.3,10.62798473
1/16/15 14:00,1421416800,0.834000015,0.000608294,4.911814283,33.14184346,1026.586941,0.148242194,6.398333333,14.87226003
1/16/15 15:00,1421420400,0.908987918,0.000602964,2.366945976,33.12722212,1026.56972,0.148242194,7.506666667,13.99120781
1/16/15 16:00,1421424000,0.909629017,0.000572241,2.076888002,33.14049204,1026.580788,0.152470002,4.898347107,10
1/16/15 17:00,1421427600,1.015296433,0.000541327,1.67664914,33.08695019,1026.531072,0.136969119,5.598333333,12.03003369
1/16/15 18:00,1421431200,1.046749766,0.00052442,1.754638556,33.0974711,1026.537932,0.122148894,4.998333333,16
1/16/15 19:00,1421434800,1.091931772,0.000553081,1.98395047,33.17261793,1026.593901,0.051582477,3.901666667,16
1/16/15 20:00,1421438400,1.054113274,0.000572064,2.675960084,33.18801143,1026.609628,0.050122577,3.001666667,12.1201714
1/16/15 21:00,1421442000,1.08811655,0.000593289,3.397478681,33.22886889,1026.639915,0.01581932,4.203333333,13.24542697
1/16/15 22:00,1421445600,1.110427121,0.000702249,5.382635386,33.20192933,1026.617224,0.019811305,5.198333333,13.57731971
1/16/15 23:00,1421449200,1.197579599,0.000711273,6.063297864,33.16765289,1026.584524,0.041824625,3.596666667,11
1/17/15 0:00,1421452800,1.17534679,0.000781742,7.855761936,33.1371364,1026.560436,0.041824625,0.798347107,13.09170895
1/17/15 1:00,1421456400,1.164329984,0.000758257,7.956281944,33.11113921,1026.541014,0.052927933,2,14.97615662
1/17/15 2:00,1421460000,1.197295047,0.000795526,8.357504266,33.1098582,1026.539414,0.056199765,0.5,15.33718579
1/17/15 3:00,1421463600,1.098286665,0.000852893,8.881352548,33.14001027,1026.570082,0.056688907,0.9,14.37408026
1/17/15 4:00,1421467200,1.165962592,0.00078922,8.292008078,33.12663384,1026.554097,0.083962684,0.403305785,15.47462948
1/17/15 5:00,1421470800,1.181703675,0.000769216,7.911492632,33.09093175,1026.52449,0.085695128,1.3,16.66625016
1/17/15 6:00,1421474400,1.178738408,0.000758448,7.718141825,33.09264649,1026.525776,0.081846325,1.898333333,16.14928155
1/17/15 7:00,1421478000,1.163327307,0.00077125,7.954773796,33.08926424,1026.524631,0.081846325,0.700833333,12.98065826
1/17/15 8:00,1421481600,1.12117555,0.000786792,8.384931063,33.10179945,1026.53859,0.065286914,1.3,11.13706423
1/17/15 9:00,1421485200,1.14117935,0.000832341,8.855392902,33.14167031,1026.568257,0.060929174,1.498333333,8.375493635
1/17/15 10:00,1421488800,1.154270539,0.000851457,8.361271156,33.10124967,1026.534776,0.050837827,0.300833333,8.699517907
1/17/15 11:00,1421492400,1.115240735,0.000800087,6.886709326,33.13861516,1026.56691,0.058533157,5.696666667,9.478912308
1/17/15 12:00,1421496000,1.134318889,0.000731072,5.814683215,33.10109959,1026.536518,0.082259683,5.6,10
1/17/15 13:00,1421499600,1.118677248,0.000748564,4.929392074,33.14665534,1026.572654,0.126697004,4.398333333,10
1/17/15 14:00,1421503200,1.168071298,0.00067676,3.704837986,33.11897866,1026.5482,0.131156882,4,12
1/17/15 15:00,1421506800,1.126073475,0.000681082,3.395273489,33.16125346,1026.582941,0.174077296,4.701666667,12.76135803
1/17/15 16:00,1421510400,1.197300433,0.00056896,2.200780265,33.112449,1026.541381,0.175159724,5.098333333,12.94989307
1/17/15 17:00,1421514000,1.293549655,0.000584293,2.007468675,33.11232689,1026.532945,0.168440693,4.096666667,13
1/17/15 18:00,1421517600,1.28066009,0.000584336,2.355204724,33.12746745,1026.547821,0.164571749,2.9,13
1/17/15 19:00,1421521200,1.398012891,0.000589674,2.332598688,33.11131947,1026.525739,0.124202059,2.898333333,10.74150079
1/17/15 20:00,1421524800,1.165596866,0.000493771,1.855511735,33.18462101,1026.600817,0.124202059,3.1,7.025744127
1/17/15 21:00,1421528400,1.40618035,0.000545685,2.7420499,33.14170752,1026.550331,0.064492996,3.1,7.916389301
1/17/15 22:00,1421532000,1.397386286,0.000555713,3.700231578,33.1776164,1026.579831,0.047782765,3.8,9.494704716
1/17/15 23:00,1421535600,1.655134292,0.000568234,4.505213812,33.11140169,1026.509575,0.023965707,2.601680672,11.97713498
1/18/15 0:00,1421539200,1.499546359,0.000660244,6.383657099,33.14101914,1026.543479,0.033992373,2.7,22.82983661
1/18/15 1:00,1421542800,1.649747648,0.000642724,6.388794068,33.09128028,1026.494417,0.033992373,2.401666667,27.0505867
1/18/15 2:00,1421546400,0.787838369,0.000543362,5.408633891,33.28871104,1026.706778,0.055531557,2.6,18.06312334
1/18/15 3:00,1421550000,1.648807222,0.00075843,7.751285296,33.06765151,1026.472858,0.055531557,3.9,11.68146644
1/18/15 4:00,1421553600,1.206726326,0.000683383,7.330834731,33.19664823,1026.607757,0.0997044,2.601666667,12.67685014
1/18/15 5:00,1421557200,1.10176944,0.000477326,4.335491873,33.36081603,1026.746478,0.099551143,1.3,12.28493831
1/18/15 6:00,1421560800,1.347389042,0.000809352,8.744517643,33.11404408,1026.532847,0.091627674,1.8,12.35715187
1/18/15 7:00,1421564400,1.31076993,0.000872727,9.80145892,33.14123264,1026.55654,0.073619881,1.6,11.03404994
1/18/15 8:00,1421568000,1.288802373,0.000935687,10.80234227,33.1484851,1026.564517,0.071317994,1.1,8.498853499
1/18/15 9:00,1421571600,1.334640153,0.000891696,10.33413619,33.09301818,1026.515065,0.046751581,1.001666667,11.01830195
1/18/15 10:00,1421575200,1.338389681,0.000820125,9.055090512,33.0578198,1026.486951,0.046751581,1.1,10.17716204
1/18/15 11:00,1421578800,1.364909975,0.000750539,7.712998464,33.06542647,1026.491169,0.055572108,1.4,9.889205224
1/18/15 12:00,1421582400,1.347488014,0.0007044,6.256346258,33.11874995,1026.53583,0.055572108,3.901666667,10.91867855
1/18/15 13:00,1421586000,1.433672543,0.000826337,6.560236891,33.0840168,1026.502149,0.089905234,4.498333333,11.94815188
1/18/15 14:00,1421589600,1.451538148,0.00084173,6.371775458,33.10595554,1026.518354,0.089905234,4.898333333,17.38067544
1/18/15 15:00,1421593200,1.360176722,0.000801951,5.487692659,33.2041796,1026.604376,0.145193106,5.1,17.92884434
1/18/15 16:00,1421596800,1.492394934,0.00098437,9.853790178,33.16490689,1026.564838,0.157088706,6.998333333,18.47701323
1/18/15 17:00,1421600400,1.480038893,0.000863605,5.982211125,33.15167982,1026.554446,0.198726867,8.096666667,18.93562344
1/18/15 18:00,1421604000,1.367692531,0.000746114,4.401716189,33.1713775,1026.575128,0.187193323,5.198333333,15.88734732
1/18/15 19:00,1421607600,1.41016446,0.000718055,5.560349447,33.15797395,1026.563943,0.18501687,5.9,11.81055867
1/18/15 20:00,1421611200,1.404803671,0.000688899,6.517307387,33.14517459,1026.551767,0.12222934,6.7,14.49042944
1/18/15 21:00,1421614800,1.316076127,0.00083342,9.842110885,33.10275673,1026.52465,0.12222934,6.501666667,15
1/18/15 22:00,1421618400,1.320818375,0.000840856,9.792863265,33.11249686,1026.534358,0.072707409,7.403333333,18.75444341
1/18/15 23:00,1421622000,1.309589548,0.000796606,9.008655323,33.11573317,1026.537058,0.062997887,7.601666667,15.74766783
1/19/15 0:00,1421625600,1.292551248,0.000773016,8.710785557,33.11571709,1026.538259,0.044526641,7.2,24.78666861
1/19/15 1:00,1421629200,1.277301774,0.000823714,7.943106419,33.12010545,1026.54221,0.040778821,6.798333333,31.57888821
1/19/15 2:00,1421632800,1.25512942,0.000715348,7.686676827,33.15612734,1026.572656,0.03775386,7.196666667,17.10417758
1/19/15 3:00,1421636400,1.199586811,0.001622604,6.906890501,33.17294399,1026.589051,0.067239574,7.2,19.65214393
1/19/15 4:00,1421640000,1.128632621,0.000645235,7.003892935,33.19804975,1026.613827,0.071529342,5.498333333,14.81926091
1/19/15 5:00,1421643600,1.131084709,0.000669351,7.26269726,33.19359993,1026.60999,0.11514128,5.598333333,14.03747998
1/19/15 6:00,1421647200,1.052603495,0.000639157,6.986921592,33.20920876,1026.629047,0.11514128,3.496666667,10.31225584
1/19/15 7:00,1421650800,1.141762502,0.000670817,7.354824095,33.16904923,1026.591072,0.117421842,0.499166667,16.22400344
1/19/15 8:00,1421654400,1.095982074,0.000611437,6.781461573,33.15406021,1026.580908,0.117421842,1.201666667,21.88675855
1/19/15 9:00,1421658000,1.051827164,0.000569179,6.408579298,33.14996612,1026.581001,0.087499247,1.498333333,22.18775075
1/19/15 10:00,1421661600,0.95856001,0.000543602,5.676149568,33.17988596,1026.61017,0.076764305,0.799159664,20.46923267
1/19/15 11:00,1421665200,1.0480885,0.000569025,6.261978215,33.14333153,1026.576236,0.069325373,0.303333333,15.99533896
1/19/15 12:00,1421668800,1.004029644,0.000562847,5.621560313,33.16749989,1026.595207,0.067442604,0.1,15.80696012
1/19/15 13:00,1421672400,0.979747915,0.000615908,6.124474926,33.13154285,1026.568578,0.06727796,1.401666667,15.61858128